EZY656V EGGW-EGAC

Flight info

Callsign EZY656V
Flight time 0h 50m
Altitude 38000
Route OLNEY T420 TNT UL28 RODOL UM65 TENSO L603 BELOX DCT REMSI DCT NINEB M148 MAGEE
Aircraft A319/M-SDE3FGHIRWY/LB1

Departure

Time 2026-04-30 11:23
Airport London Luton Airport (EGGW)

Arrival

Time 2026-04-30 12:13
Airport George Best Belfast City Airport (EGAC)
Time Latitude Longitude Altitude Speed Heading
2026-04-30 10:57 51.87859 -0.37893 524 ft 0 kts 46°
2026-04-30 11:14 51.87845 -0.37916 523 ft 4 kts 46°
2026-04-30 11:15 51.87830 -0.37942 523 ft 4 kts 63°
2026-04-30 11:15 51.87830 -0.37971 523 ft 4 kts 140°
2026-04-30 11:15 51.87850 -0.37993 523 ft 2 kts 150°
2026-04-30 11:15 51.87851 -0.37994 523 ft 0 kts 150°
2026-04-30 11:18 51.87840 -0.37984 523 ft 5 kts 149°
2026-04-30 11:19 51.87809 -0.37941 523 ft 7 kts 131°
2026-04-30 11:19 51.87786 -0.37868 523 ft 8 kts 115°
2026-04-30 11:19 51.87760 -0.37780 523 ft 9 kts 115°
2026-04-30 11:19 51.87730 -0.37673 521 ft 13 kts 115°
2026-04-30 11:20 51.87686 -0.37527 521 ft 14 kts 122°
2026-04-30 11:20 51.87610 -0.37458 523 ft 13 kts 169°
2026-04-30 11:20 51.87522 -0.37491 521 ft 13 kts 221°
2026-04-30 11:20 51.87489 -0.37618 523 ft 12 kts 255°
2026-04-30 11:21 51.87467 -0.37750 523 ft 13 kts 255°
2026-04-30 11:21 51.87442 -0.37896 523 ft 13 kts 255°
2026-04-30 11:21 51.87403 -0.38027 524 ft 13 kts 224°
2026-04-30 11:21 51.87318 -0.38107 522 ft 15 kts 204°
2026-04-30 11:22 51.87249 -0.38092 524 ft 8 kts 119°
2026-04-30 11:22 51.87252 -0.38057 524 ft 0 kts 72°
2026-04-30 11:22 51.87257 -0.38030 524 ft 15 kts 72°
2026-04-30 11:22 51.87436 -0.36998 524 ft 122 kts 75°
2026-04-30 11:23 51.87602 -0.36025 728 ft 140 kts 79°
2026-04-30 11:23 51.87872 -0.34504 1502 ft 141 kts 78°
2026-04-30 11:23 51.88478 -0.31117 2650 ft 183 kts 80°
2026-04-30 11:24 51.88860 -0.28988 3235 ft 210 kts 79°
2026-04-30 11:24 51.89547 -0.26722 3848 ft 247 kts 53°
2026-04-30 11:24 51.91139 -0.25316 4669 ft 280 kts 16°
2026-04-30 11:25 51.94818 -0.27595 6698 ft 306 kts 306°
2026-04-30 11:25 51.95642 -0.30715 7709 ft 303 kts 273°
2026-04-30 11:25 51.94671 -0.37151 9752 ft 299 kts 245°
2026-04-30 11:26 51.94801 -0.44189 10983 ft 346 kts 295°
2026-04-30 11:26 51.96280 -0.47306 11744 ft 355 kts 316°
2026-04-30 11:26 51.98067 -0.50103 12651 ft 358 kts 316°
2026-04-30 11:27 51.99868 -0.52923 13536 ft 363 kts 316°
2026-04-30 11:27 52.01692 -0.55789 14369 ft 367 kts 316°
2026-04-30 11:27 52.03531 -0.58692 15160 ft 371 kts 316°
2026-04-30 11:27 52.05388 -0.61632 15895 ft 375 kts 315°
2026-04-30 11:28 52.09163 -0.67637 17383 ft 384 kts 315°
2026-04-30 11:28 52.11080 -0.70692 18131 ft 388 kts 315°
2026-04-30 11:28 52.13110 -0.73615 18820 ft 392 kts 323°
2026-04-30 11:29 52.15415 -0.76025 19458 ft 396 kts 329°
2026-04-30 11:29 52.17784 -0.78356 20112 ft 400 kts 329°
2026-04-30 11:29 52.22581 -0.83093 21406 ft 407 kts 329°
2026-04-30 11:30 52.27469 -0.87940 22673 ft 415 kts 329°
2026-04-30 11:30 52.29913 -0.90372 23292 ft 418 kts 329°
2026-04-30 11:30 52.32406 -0.92851 23931 ft 421 kts 329°
2026-04-30 11:31 52.34920 -0.95352 24474 ft 425 kts 329°
2026-04-30 11:31 52.37457 -0.97880 24982 ft 428 kts 329°
2026-04-30 11:31 52.40011 -1.00428 25502 ft 433 kts 329°
2026-04-30 11:31 52.42595 -1.03013 25923 ft 438 kts 329°
2026-04-30 11:32 52.45209 -1.05636 26328 ft 442 kts 329°
2026-04-30 11:32 52.47840 -1.08280 26797 ft 446 kts 329°
2026-04-30 11:32 52.50495 -1.10955 27246 ft 449 kts 329°
2026-04-30 11:33 52.55862 -1.16366 28156 ft 455 kts 328°
2026-04-30 11:33 52.58570 -1.19097 28606 ft 459 kts 328°
2026-04-30 11:33 52.61298 -1.21852 29049 ft 462 kts 328°
2026-04-30 11:33 52.64047 -1.24631 29490 ft 466 kts 328°
2026-04-30 11:34 52.66817 -1.27435 29936 ft 469 kts 328°
2026-04-30 11:34 52.69610 -1.30262 30336 ft 472 kts 328°
2026-04-30 11:34 52.72416 -1.33108 30727 ft 475 kts 328°
2026-04-30 11:34 52.75237 -1.35976 31270 ft 477 kts 328°
2026-04-30 11:35 52.78067 -1.38860 31667 ft 479 kts 328°
2026-04-30 11:35 52.80902 -1.41759 32095 ft 479 kts 328°
2026-04-30 11:35 52.83731 -1.44658 32643 ft 477 kts 328°
2026-04-30 11:35 52.86547 -1.47544 33200 ft 476 kts 328°
2026-04-30 11:36 52.89356 -1.50426 33726 ft 474 kts 328°
2026-04-30 11:36 52.92153 -1.53296 34284 ft 473 kts 328°
2026-04-30 11:36 52.94948 -1.56171 34728 ft 472 kts 328°
2026-04-30 11:36 52.97731 -1.59045 35178 ft 471 kts 328°
2026-04-30 11:37 53.00505 -1.61920 35634 ft 469 kts 328°
2026-04-30 11:37 53.03266 -1.64784 36056 ft 468 kts 328°
2026-04-30 11:37 53.06021 -1.67641 36486 ft 466 kts 328°
2026-04-30 11:37 53.08765 -1.70491 36907 ft 465 kts 328°
2026-04-30 11:38 53.11503 -1.73338 37324 ft 463 kts 328°
2026-04-30 11:38 53.14232 -1.76178 37733 ft 461 kts 328°
2026-04-30 11:38 53.16949 -1.79008 38120 ft 460 kts 328°
2026-04-30 11:38 53.19661 -1.81837 38271 ft 459 kts 327°
2026-04-30 11:39 53.25056 -1.87464 38265 ft 456 kts 328°
2026-04-30 11:39 53.30546 -1.92762 38273 ft 455 kts 330°
2026-04-30 11:40 53.36098 -1.97878 38273 ft 455 kts 331°
2026-04-30 11:40 53.41631 -2.03050 38277 ft 455 kts 330°
2026-04-30 11:41 53.47137 -2.08319 38279 ft 456 kts 330°
2026-04-30 11:41 53.52637 -2.13625 38263 ft 457 kts 330°
2026-04-30 11:42 53.57825 -2.19717 38253 ft 455 kts 314°
2026-04-30 11:42 53.61613 -2.28139 38252 ft 450 kts 295°
2026-04-30 11:43 53.63988 -2.37843 38236 ft 448 kts 288°
2026-04-30 11:43 53.66218 -2.47581 38238 ft 449 kts 288°
2026-04-30 11:44 53.68458 -2.57410 38233 ft 449 kts 288°
2026-04-30 11:44 53.70684 -2.67251 38263 ft 449 kts 287°
2026-04-30 11:45 53.72899 -2.77096 38260 ft 448 kts 287°
2026-04-30 11:45 53.75103 -2.86917 38263 ft 446 kts 287°
2026-04-30 11:46 53.77297 -2.96717 38237 ft 446 kts 287°
2026-04-30 11:46 53.79476 -3.06523 38240 ft 445 kts 287°
2026-04-30 11:47 53.80564 -3.11434 38028 ft 445 kts 287°
2026-04-30 11:47 53.81647 -3.16330 37767 ft 443 kts 287°
2026-04-30 11:47 53.82722 -3.21202 37498 ft 441 kts 287°
2026-04-30 11:47 53.83793 -3.26071 37228 ft 441 kts 287°
2026-04-30 11:48 53.84862 -3.30943 36959 ft 443 kts 287°
2026-04-30 11:48 53.85933 -3.35842 36715 ft 444 kts 287°
2026-04-30 11:48 53.87004 -3.40762 36455 ft 446 kts 287°
2026-04-30 11:48 53.88077 -3.45696 36195 ft 447 kts 287°
2026-04-30 11:49 53.89156 -3.50652 35945 ft 449 kts 287°
2026-04-30 11:49 53.90235 -3.55617 35700 ft 449 kts 286°
2026-04-30 11:49 53.91314 -3.60590 35453 ft 449 kts 286°
2026-04-30 11:49 53.92385 -3.65557 35202 ft 448 kts 286°
2026-04-30 11:50 53.93454 -3.70526 34968 ft 447 kts 286°
2026-04-30 11:50 53.94509 -3.75455 34514 ft 442 kts 286°
2026-04-30 11:50 53.95559 -3.80351 33972 ft 441 kts 287°
2026-04-30 11:50 53.96869 -3.85052 33458 ft 441 kts 296°
2026-04-30 11:51 53.98399 -3.89544 32975 ft 438 kts 296°
2026-04-30 11:51 53.99915 -3.94003 32479 ft 434 kts 296°
2026-04-30 11:51 54.01418 -3.98439 31995 ft 431 kts 296°
2026-04-30 11:51 54.02904 -4.02845 31507 ft 428 kts 296°
2026-04-30 11:52 54.04376 -4.07229 31042 ft 426 kts 296°
2026-04-30 11:52 54.05837 -4.11599 30581 ft 424 kts 296°
2026-04-30 11:52 54.07469 -4.15785 30106 ft 424 kts 302°
2026-04-30 11:52 54.09165 -4.19862 29660 ft 420 kts 302°
2026-04-30 11:53 54.10847 -4.23913 29238 ft 417 kts 302°
2026-04-30 11:53 54.12509 -4.27929 28810 ft 413 kts 302°
2026-04-30 11:53 54.14154 -4.31919 28392 ft 410 kts 302°
2026-04-30 11:53 54.15787 -4.35884 27966 ft 406 kts 302°
2026-04-30 11:54 54.17405 -4.39809 27552 ft 403 kts 302°
2026-04-30 11:54 54.19009 -4.43704 27129 ft 400 kts 302°
2026-04-30 11:54 54.20604 -4.47581 26691 ft 397 kts 301°
2026-04-30 11:54 54.22185 -4.51431 26261 ft 395 kts 301°
2026-04-30 11:55 54.23756 -4.55271 25817 ft 393 kts 301°
2026-04-30 11:55 54.25293 -4.59033 25377 ft 390 kts 301°
2026-04-30 11:55 54.26842 -4.62834 24922 ft 389 kts 301°
2026-04-30 11:55 54.28402 -4.66670 24463 ft 387 kts 301°
2026-04-30 11:56 54.29918 -4.70402 23997 ft 386 kts 301°
2026-04-30 11:56 54.31450 -4.74175 23494 ft 386 kts 301°
2026-04-30 11:56 54.32980 -4.77938 23031 ft 383 kts 301°
2026-04-30 11:56 54.34495 -4.81673 22592 ft 381 kts 301°
2026-04-30 11:57 54.36001 -4.85398 22144 ft 379 kts 300°
2026-04-30 11:57 54.37473 -4.89136 21704 ft 376 kts 295°
2026-04-30 11:57 54.38372 -4.93223 21273 ft 361 kts 274°
2026-04-30 11:57 54.38702 -4.97450 20838 ft 356 kts 269°
2026-04-30 11:58 54.38968 -5.01656 20421 ft 354 kts 269°
2026-04-30 11:58 54.39211 -5.05853 20005 ft 351 kts 266°
2026-04-30 11:58 54.39157 -5.09983 19585 ft 345 kts 259°
2026-04-30 11:58 54.39002 -5.14067 19172 ft 341 kts 259°
2026-04-30 11:59 54.38841 -5.18097 18771 ft 336 kts 259°
2026-04-30 11:59 54.38683 -5.22065 18352 ft 331 kts 259°
2026-04-30 11:59 54.38528 -5.25968 17868 ft 326 kts 259°
2026-04-30 11:59 54.38375 -5.29826 17340 ft 322 kts 259°
2026-04-30 12:00 54.38221 -5.33641 16826 ft 320 kts 259°
2026-04-30 12:00 54.38064 -5.37446 16255 ft 321 kts 259°
2026-04-30 12:00 54.37898 -5.41271 15622 ft 322 kts 259°
2026-04-30 12:00 54.37732 -5.45098 15021 ft 321 kts 259°
2026-04-30 12:01 54.37565 -5.48909 14425 ft 320 kts 259°
2026-04-30 12:01 54.37397 -5.52699 13814 ft 318 kts 259°
2026-04-30 12:01 54.37225 -5.56476 13158 ft 317 kts 259°
2026-04-30 12:01 54.37049 -5.60222 12516 ft 314 kts 259°
2026-04-30 12:02 54.36869 -5.63938 11961 ft 309 kts 259°
2026-04-30 12:02 54.36694 -5.67560 11490 ft 302 kts 259°
2026-04-30 12:02 54.36523 -5.71107 11020 ft 295 kts 259°
2026-04-30 12:02 54.36357 -5.74578 10573 ft 291 kts 259°
2026-04-30 12:03 54.36190 -5.78030 10119 ft 290 kts 259°
2026-04-30 12:03 54.35848 -5.84817 9303 ft 282 kts 259°
2026-04-30 12:03 54.35675 -5.88157 8908 ft 281 kts 259°
2026-04-30 12:04 54.35489 -5.91490 8533 ft 279 kts 257°
2026-04-30 12:04 54.34864 -5.94515 8162 ft 263 kts 229°
2026-04-30 12:04 54.33637 -5.96713 7781 ft 251 kts 215°
2026-04-30 12:04 54.32321 -5.98637 7406 ft 246 kts 214°
2026-04-30 12:05 54.31034 -6.00486 7040 ft 238 kts 214°
2026-04-30 12:05 54.29863 -6.02477 6676 ft 241 kts 230°
2026-04-30 12:05 54.29271 -6.05190 6339 ft 249 kts 259°
2026-04-30 12:05 54.29516 -6.08099 6084 ft 250 kts 290°
2026-04-30 12:06 54.30548 -6.10430 5857 ft 246 kts 321°
2026-04-30 12:06 54.32055 -6.11605 5661 ft 240 kts 352°
2026-04-30 12:06 54.33711 -6.11577 5466 ft 233 kts
2026-04-30 12:06 54.35290 -6.11311 5261 ft 229 kts
2026-04-30 12:07 54.36864 -6.11051 5062 ft 226 kts
2026-04-30 12:07 54.38404 -6.10797 4907 ft 218 kts
2026-04-30 12:07 54.39896 -6.10554 4684 ft 213 kts
2026-04-30 12:07 54.41357 -6.10315 4478 ft 210 kts
2026-04-30 12:08 54.42758 -6.09731 4354 ft 206 kts 28°
2026-04-30 12:08 54.43963 -6.08478 4146 ft 202 kts 41°
2026-04-30 12:08 54.44742 -6.07555 3969 ft 201 kts 41°
2026-04-30 12:08 54.46250 -6.05770 3624 ft 198 kts 41°
2026-04-30 12:09 54.47387 -6.04421 3369 ft 199 kts 41°
2026-04-30 12:09 54.48525 -6.03072 3101 ft 198 kts 41°
2026-04-30 12:09 54.49657 -6.01731 2834 ft 196 kts 42°
2026-04-30 12:09 54.50770 -6.00411 2576 ft 193 kts 43°
2026-04-30 12:10 54.51512 -5.99529 2403 ft 192 kts 42°
2026-04-30 12:10 54.52587 -5.98254 2139 ft 182 kts 42°
2026-04-30 12:10 54.53592 -5.97063 1912 ft 166 kts 44°
2026-04-30 12:10 54.54484 -5.96009 1679 ft 145 kts 45°
2026-04-30 12:11 54.55279 -5.95061 1498 ft 134 kts 46°
2026-04-30 12:11 54.56026 -5.94168 1331 ft 129 kts 44°
2026-04-30 12:11 54.56751 -5.93300 1142 ft 125 kts 46°
2026-04-30 12:11 54.57458 -5.92434 955 ft 124 kts 46°
2026-04-30 12:12 54.58165 -5.91587 763 ft 124 kts 43°
2026-04-30 12:12 54.58878 -5.90751 621 ft 124 kts 42°
2026-04-30 12:12 54.59601 -5.89900 470 ft 127 kts 41°
2026-04-30 12:12 54.60324 -5.89034 272 ft 127 kts 40°
2026-04-30 12:13 54.61048 -5.88175 87 ft 126 kts 42°
2026-04-30 12:13 54.61737 -5.87345 22 ft 106 kts 35°
2026-04-30 12:13 54.62115 -5.86886 16 ft 44 kts 35°
2026-04-30 12:13 54.62330 -5.86633 22 ft 22 kts 34°
2026-04-30 12:14 54.62430 -5.86546 22 ft 12 kts 358°
2026-04-30 12:14 54.62458 -5.86498 20 ft 5 kts 139°
2026-04-30 12:14 54.62425 -5.86516 21 ft 6 kts 216°
2026-04-30 12:14 54.62378 -5.86571 22 ft 11 kts 214°
2026-04-30 12:15 54.62291 -5.86677 20 ft 18 kts 214°
2026-04-30 12:15 54.62186 -5.86803 19 ft 20 kts 214°
2026-04-30 12:15 54.62063 -5.86949 17 ft 22 kts 215°
2026-04-30 12:15 54.61939 -5.87098 17 ft 15 kts 215°
2026-04-30 12:16 54.61891 -5.87154 19 ft 7 kts 212°
2026-04-30 12:16 54.61839 -5.87167 18 ft 9 kts 168°
2026-04-30 12:16 54.61794 -5.87076 19 ft 9 kts 123°
2026-04-30 12:16 54.61762 -5.87003 21 ft 7 kts 139°
2026-04-30 12:17 54.61694 -5.87030 22 ft 2 kts 214°
2026-04-30 12:17 54.61679 -5.87048 21 ft 3 kts 214°
2026-04-30 12:17 54.61656 -5.87075 21 ft 4 kts 214°
2026-04-30 12:18 54.61641 -5.87092 21 ft 3 kts 214°
2026-04-30 12:18 54.61633 -5.87102 21 ft 0 kts 214°
2026-04-30 12:18 54.61620 -5.87117 21 ft 6 kts 214°
2026-04-30 12:19 54.61585 -5.87159 21 ft 6 kts 215°
2026-04-30 12:19 54.61544 -5.87180 21 ft 7 kts 167°
2026-04-30 12:19 54.61509 -5.87152 23 ft 3 kts 156°
2026-04-30 12:19 54.61499 -5.87144 23 ft 1 kts 156°
2026-04-30 12:20 54.61498 -5.87144 23 ft 0 kts 156°
2026-04-30 12:25 54.61498 -5.87143 22 ft 0 kts 156°